Theta_e
335 335 336 337 336 335 333 333 334 333 333 332 332 332 333 333 336 334 334 335 334 334 333 333 333 334 334 333 333 330 331 333 335 339 337 335 334 333 334 332 332 332
334 335 333 333 332 334 335 335 334 333 333 334 334 334 332 333 333 332 333 333 333 332 331 332 334 334 333 333 334 331 331 333 331 333 335 334 333 334 333 335 333 333
335 334 332 332 333 333 337 337 335 335 333 335 335 333 332 333 333 333 333 333 331 331 332 333 333 334 333 333 333 330 331 331 330 332 331 330 332 332 332 334 334 333
335 334 333 334 337 336 336 334 334 332 331 332 332 333 332 333 334 333 333 332 330 331 333 333 333 333 328 330 332 330 330 330 331 333 330 330 332 330 331 332 333 332
333 333 334 336 337 335 334 332 330 330 330 332 333 333 331 333 331 330 329 330 330 331 332 332 333 332 330 330 329 329 331 329 330 330 329 330 330 330 332 332 331 331
333 332 332 335 334 332 331 331 330 331 331 331 332 331 332 332 329 327 327 327 329 329 331 331 330 328 329 330 329 329 327 327 329 328 324 327 325 329 327 331 331 331
331 332 334 334 332 331 331 330 329 329 330 331 331 331 330 330 328 326 325 326 326 326 327 329 327 329 331 329 328 328 329 326 326 325 322 324 325 328 325 328 327 328
330 330 328 329 330 329 330 330 329 329 330 329 329 329 329 329 327 327 326 325 323 324 325 326 326 329 329 329 326 328 326 328 326 326 325 319 324 325 326 327 329 327
329 330 331 330 329 331 330 329 329 329 328 329 329 329 329 330 327 327 326 324 322 323 322 324 326 327 329 329 328 325 323 324 327 325 322 324 325 323 322 325 327 328
328 329 328 328 328 329 330 329 329 328 328 328 328 328 328 330 327 327 327 326 323 320 321 322 326 327 328 328 323 323 322 323 325 322 324 325 325 322 322 324 325 328
328 327 327 329 328 329 329 330 330 328 327 327 328 328 328 328 326 328 328 325 325 320 320 322 324 325 327 325 324 325 324 326 323 323 326 325 323 324 327 324 325 326
326 326 327 330 329 329 328 329 329 328 328 327 326 326 327 328 326 327 327 324 323 321 321 322 322 325 323 321 321 325 326 325 325 326 326 322 323 323 324 327 326 325
326 326 330 333 330 329 330 329 328 328 327 325 326 327 326 327 326 326 329 325 324 323 322 323 322 324 324 324 323 325 325 326 324 326 325 325 325 324 323 325 324 325
327 330 330 331 330 328 328 328 328 327 328 327 328 327 327 326 324 325 328 327 325 323 322 324 324 325 323 325 325 326 325 325 327 326 326 325 326 326 327 326 324 323
329 329 329 329 328 328 327 327 326 329 327 326 328 326 329 326 325 324 327 325 325 325 321 324 325 322 319 321 324 324 326 327 326 327 325 326 326 326 326 327 326 327
328 327 327 327 327 327 328 327 327 328 325 325 325 324 327 323 323 323 325 326 323 325 324 324 320 315 303 298 301 320 326 326 328 327 327 326 326 327 326 326 328 326
325 324 324 324 325 325 324 323 324 326 326 323 323 323 326 323 324 320 325 325 323 324 324 320 313 304 296 294 296 298 315 326 327 326 327 327 326 326 327 326 327 326
324 324 324 324 324 322 321 322 323 324 323 324 324 324 324 326 325 323 323 325 324 324 323 317 309 298 294 295 295 294 300 317 324 326 328 328 327 325 324 323 323 324
323 323 323 322 321 320 319 320 321 321 321 322 323 324 325 323 323 322 321 323 325 322 317 313 309 295 295 295 295 293 294 310 322 324 324 325 325 324 321 323 321 320
321 320 319 319 319 320 319 319 318 317 318 320 322 322 322 323 322 321 322 322 323 318 312 308 304 296 294 294 295 294 293 302 322 324 325 325 325 323 322 322 324 324
321 320 319 318 318 318 318 317 317 318 318 319 321 323 323 321 321 320 320 321 321 317 311 307 300 293 293 293 293 294 294 300 321 324 324 325 326 325 321 323 323 324
318 320 319 319 319 319 317 316 316 317 318 319 320 321 323 324 322 321 320 321 321 317 312 307 300 291 292 292 292 292 295 313 319 322 323 324 324 326 323 322 322 321
315 317 316 317 318 318 318 316 316 317 318 318 319 319 321 321 321 322 322 322 319 317 312 306 300 293 291 291 291 291 298 312 318 320 321 322 322 323 322 322 321 321
311 313 313 315 317 317 317 318 319 318 318 321 318 318 318 320 320 320 320 319 316 312 308 303 299 294 291 291 291 291 296 308 314 317 319 321 320 321 321 321 319 318
308 310 310 311 311 313 315 315 317 318 318 318 317 318 318 319 319 317 317 317 314 311 308 304 300 297 292 292 292 292 296 304 310 315 317 318 317 318 320 319 318 307
307 308 309 309 309 310 310 312 315 318 319 317 317 317 316 315 315 314 313 312 311 310 308 304 301 298 294 292 293 294 294 306 313 308 307 309 316 316 317 319 317 311
Wind_Speed
7 6 5 5 5 5 6 6 5 6 6 7 7 6 5 6 3 5 5 3 3 3 4 4 3 1 4 3 1 3 4 5 2 2 2 3 4 3 4 3 2 2
7 5 5 4 4 3 5 5 5 5 5 5 5 5 5 4 4 5 3 3 3 4 4 3 2 2 3 2 0 6 3 3 4 4 2 4 4 3 4 4 3 3
6 5 5 4 4 4 3 5 6 5 5 5 5 6 5 4 4 4 3 3 4 4 3 3 3 2 3 3 3 5 4 3 4 3 4 4 3 3 4 4 3 4
5 5 5 4 2 3 5 6 6 7 6 6 6 5 5 3 4 3 3 5 4 3 3 3 3 2 4 3 4 5 4 4 3 3 3 2 2 4 3 3 4 3
5 4 3 2 3 4 6 7 7 7 6 4 5 4 4 3 5 4 4 4 3 3 2 3 2 2 3 3 4 3 3 5 3 3 3 2 3 3 3 3 3 3
3 2 2 3 4 5 6 7 8 7 7 5 5 5 4 4 5 5 4 4 3 3 3 2 3 3 3 3 4 3 4 4 2 2 3 2 3 2 4 3 3 1
3 2 3 2 4 5 5 7 7 6 6 5 6 5 4 4 6 6 5 5 5 5 3 3 3 2 2 3 3 3 3 4 2 1 3 3 3 2 5 4 3 3
5 7 6 6 4 5 5 6 7 6 5 5 5 6 4 4 7 4 5 4 5 5 4 3 3 2 2 2 3 0 4 2 0 1 3 5 2 1 4 3 3 7
3 2 2 7 4 4 5 6 6 6 5 4 5 6 4 3 5 4 4 4 4 5 5 4 3 3 2 1 3 4 2 1 1 2 5 1 2 4 3 4 3 3
5 6 6 6 4 4 5 5 5 6 5 5 5 4 4 4 4 3 3 3 4 4 4 4 3 3 3 2 4 3 1 1 1 5 1 3 3 4 6 4 6 3
7 6 3 3 3 4 6 6 5 5 5 6 6 5 5 5 4 3 3 3 4 4 4 3 4 3 3 3 3 3 2 2 3 2 2 2 5 5 6 5 5 4
8 7 4 1 3 5 7 6 5 4 3 4 5 6 6 4 4 3 3 4 3 3 4 3 4 3 3 4 4 3 3 3 3 2 2 4 2 4 4 3 4 4
8 7 4 2 5 5 5 5 5 4 4 4 3 4 5 4 5 4 2 3 2 3 4 3 4 3 3 4 3 3 3 3 4 2 4 2 1 4 3 3 4 4
6 5 4 4 5 4 4 4 4 4 3 4 3 4 3 3 4 5 2 2 2 3 4 3 4 3 4 3 3 3 3 3 2 3 3 2 3 3 3 3 4 3
6 5 5 5 5 5 5 4 4 3 4 4 3 4 3 3 4 5 2 2 2 3 4 4 7 8 6 5 1 4 3 2 3 2 3 1 2 3 2 2 3 4
6 5 5 6 6 6 4 4 4 3 5 4 5 4 2 4 4 4 2 2 3 3 6 9 7 5 8 12 11 5 1 2 2 1 2 2 0 2 2 1 1 5
7 7 7 7 6 7 7 9 9 8 4 4 6 4 3 4 4 4 3 3 6 5 9 9 6 6 11 13 13 14 9 6 1 0 1 1 2 0 2 0 0 5
6 6 6 5 5 6 7 7 7 7 8 8 9 9 8 7 5 4 5 4 5 6 9 7 6 9 11 13 12 13 10 6 5 4 0 1 1 2 2 8 10 8
7 7 8 7 5 5 6 8 9 9 8 8 8 6 6 7 7 8 8 9 9 11 9 7 5 10 10 13 13 12 12 8 5 5 7 5 5 8 10 5 1 4
7 8 8 7 6 5 6 8 10 9 8 7 6 7 7 6 7 8 7 8 8 9 8 6 7 10 11 12 12 13 13 9 3 5 5 4 3 4 2 2 4 2
5 7 7 7 5 5 6 6 8 9 8 5 6 6 5 5 6 7 6 6 7 7 7 7 5 11 12 13 14 13 13 8 4 3 4 3 3 6 3 2 4 3
7 5 6 6 6 6 6 5 6 6 5 2 3 4 4 3 4 5 6 6 7 7 7 7 7 14 14 14 13 12 10 3 3 2 2 2 2 3 3 5 5 2
7 8 8 7 6 6 6 6 5 4 3 0 3 2 3 3 3 5 5 7 7 7 7 5 5 10 12 11 12 14 10 6 5 4 3 2 3 5 5 6 6 5
9 9 9 7 7 8 7 6 5 4 3 3 1 2 3 4 6 7 7 7 8 7 6 8 7 10 13 13 13 13 7 4 4 3 4 3 3 4 4 5 8 13
9 10 9 10 9 8 7 6 5 5 4 5 6 7 7 6 7 8 7 8 8 9 11 10 7 8 13 13 14 13 9 4 3 3 4 4 2 3 5 5 6 9
8 9 9 9 9 9 8 7 5 4 6 7 6 6 7 7 8 7 8 7 7 8 8 8 8 7 10 14 14 15 14 6 6 7 6 7 5 3 3 4 6 7
Wind_Direction
144 157 143 130 136 146 150 173 166 157 154 151 154 162 152 146 148 110 104 111 101 100 91 86 89 104 67 64 326 86 96 90 101 54 119 130 127 148 134 132 112 89
151 141 108 111 128 161 172 176 155 135 118 114 117 113 108 111 98 103 116 119 121 96 100 113 134 134 138 139 134 96 113 141 137 145 158 122 137 142 136 137 140 135
139 125 127 139 154 192 186 130 116 111 116 109 102 102 107 114 120 132 153 140 107 105 114 135 142 169 118 134 131 119 136 150 131 163 158 137 148 136 131 135 149 148
128 136 145 160 194 181 125 107 93 92 88 92 94 105 121 139 124 128 114 98 104 128 145 128 165 162 129 165 122 130 162 142 134 111 100 142 136 112 123 133 146 164
122 131 135 176 179 121 106 105 103 103 109 108 114 117 135 135 124 112 101 108 121 125 129 156 171 109 124 147 118 122 120 93 120 161 143 128 100 116 122 127 144 157
87 100 185 181 132 120 116 117 123 131 134 139 132 138 144 152 130 126 131 134 139 130 150 162 112 138 165 104 101 110 108 150 180 149 127 130 110 152 152 124 104 110
46 9 323 122 141 127 127 132 136 132 134 135 137 139 160 167 135 144 147 149 146 151 147 143 130 197 120 125 124 159 181 116 169 199 151 151 140 180 107 124 135 90
2 2 357 288 144 153 153 148 134 137 142 146 147 140 180 165 135 146 149 155 149 150 144 145 158 146 118 160 133 120 74 91 212 263 99 92 195 135 97 94 118 132
127 150 208 268 165 183 160 134 126 125 132 137 131 143 177 158 128 150 155 144 140 137 141 149 157 136 146 155 91 85 104 50 321 64 80 117 95 119 132 109 110 106
161 153 183 236 185 178 134 118 126 137 145 151 142 153 160 122 126 150 146 132 135 132 132 155 144 126 175 136 113 123 130 170 69 87 120 227 190 135 108 105 86 91
162 143 101 294 186 160 130 139 147 148 161 150 147 155 138 130 150 144 141 143 137 143 141 152 129 157 139 101 110 143 163 127 118 137 229 38 41 84 101 105 131 134
145 135 134 213 203 142 145 157 154 154 159 135 155 147 138 146 150 137 158 130 162 142 136 134 139 141 135 135 143 164 139 150 136 151 79 73 28 54 81 118 125 124
140 143 154 155 164 145 142 144 137 140 149 140 144 132 144 159 138 132 155 135 182 132 126 135 133 149 135 139 151 136 139 106 94 101 88 106 125 88 74 63 102 109
133 133 121 104 128 138 137 132 120 142 149 130 128 116 129 119 135 123 183 133 169 125 129 117 119 136 134 150 136 117 97 98 93 77 83 64 70 98 102 87 76 85
115 113 108 99 119 139 137 131 149 164 127 127 107 109 122 111 106 114 159 100 95 103 124 96 61 35 23 359 99 119 107 106 117 93 93 75 46 75 79 80 103 75
93 78 72 87 76 63 57 119 125 110 124 128 117 111 110 110 124 115 159 163 142 107 91 73 57 50 9 35 41 28 74 104 92 110 122 99 171 81 84 358 89 94
95 77 47 33 60 69 62 58 55 36 45 100 95 93 83 105 128 131 126 83 75 65 72 67 56 21 17 38 34 36 29 15 28 50 72 132 107 9 57 299 40 87
87 100 101 82 53 70 69 66 65 61 57 57 62 59 48 41 50 74 75 77 95 83 63 62 63 21 26 35 34 33 34 23 1 352 85 81 61 37 354 23 11 14
71 79 80 65 48 60 76 74 70 61 49 48 56 55 54 61 65 63 60 53 57 68 63 50 51 21 31 33 32 27 20 24 15 16 5 8 27 41 28 32 163 80
77 80 79 78 78 55 52 70 71 69 53 42 46 59 63 59 62 66 60 57 69 79 73 47 37 7 26 34 33 22 13 3 28 14 4 1 78 103 118 259 53 47
73 89 93 99 89 79 66 56 67 68 55 37 44 36 54 73 80 76 68 68 72 79 79 63 25 12 28 27 26 18 7 344 9 9 7 1 38 97 126 203 131 101
41 80 113 122 121 114 101 88 81 74 74 34 68 65 53 50 73 85 92 87 84 83 82 65 33 19 27 27 22 11 358 1 344 15 7 360 357 92 74 56 33 51
29 57 62 66 75 85 103 114 114 109 100 74 88 121 112 97 97 73 70 89 85 82 88 84 53 25 30 31 27 18 18 3 350 343 345 354 42 45 47 48 54 51
44 47 49 55 64 70 69 71 79 74 54 19 9 129 136 103 80 79 70 67 71 73 81 74 56 32 34 32 31 23 17 5 341 349 343 15 40 51 63 66 56 57
42 49 51 46 42 50 57 60 63 67 55 52 59 52 46 60 74 81 82 77 79 79 68 69 62 42 37 38 34 26 16 0 337 340 6 33 45 72 103 93 84 58
35 56 60 52 52 48 44 43 35 66 81 72 61 59 61 47 52 56 72 68 64 65 68 70 69 54 40 42 39 30 20 15 28 31 17 354 7 16 89 128 116 111